Private Wetterstation Wechselburg
Wetterdaten: Donnerstag, 01.12.2016
Datum Zeit Temp. +2m Bodentemp. Temp.+5cm Temp. Wind Windchill X Diff Temp. Feuchte +2m Feuchte +5cm Sonnenschein Luftdruck Regen Wind Richtung Richtung Sonnenschein Taupunkt Windchill Windben
01.12.2016 00:00 0,8 C 2,7 C 1,4 C 0,4 C -0,3 C 0,0 C 86 % 85 % 0 % 1025,9 hPa 0,7 l/m 6,3 km/h (2 Bft) SW 225 0 min -1,3 C -2,5 C 2,9 km/h (1 Bft)
01.12.2016 00:05 0,9 C 2,7 C 1,5 C 0,5 C -0,2 C 0,0 C 86 % 86 % 0 % 1025,9 hPa 0,0 l/m 6,1 km/h (2 Bft) W-SW 247 0 min -1,2 C -2,3 C 5,6 km/h (1 Bft)
01.12.2016 00:12 0,8 C 2,7 C 1,5 C 0,5 C -0,2 C 0,0 C 86 % 86 % 0 % 1025,9 hPa 0,0 l/m 6,0 km/h (2 Bft) N 0 0 min -1,3 C -2,3 C 7,1 km/h (2 Bft)
01.12.2016 00:25 0,8 C 2,7 C 1,5 C 0,6 C 0,1 C 0,0 C 86 % 85 % 0 % 1025,4 hPa 0,0 l/m 5,5 km/h (1 Bft) S 180 0 min -1,3 C -1,7 C 12,7 km/h (3 Bft)
01.12.2016 00:26 0,8 C 2,7 C 1,5 C 0,6 C 0,1 C 0,0 C 86 % 85 % 0 % 1025,4 hPa 0,0 l/m 5,5 km/h (1 Bft) S 180 0 min -1,3 C -1,7 C 10,6 km/h (2 Bft)
01.12.2016 00:30 0,9 C 2,7 C 1,5 C 0,5 C -0,2 C 0,0 C 86 % 85 % 0 % 1025,4 hPa 0,0 l/m 6,0 km/h (2 Bft) S-SO 157 0 min -1,2 C -2,3 C 8,0 km/h (2 Bft)
01.12.2016 00:35 0,9 C 2,7 C 1,6 C 0,5 C -0,3 C 0,0 C 86 % 85 % 0 % 1025,4 hPa 0,7 l/m 6,3 km/h (2 Bft) SW 225 0 min -1,2 C -2,5 C 9,0 km/h (2 Bft)
01.12.2016 00:40 0,9 C 2,8 C 1,5 C 0,6 C 0,1 C 0,0 C 86 % 85 % 0 % 1025,6 hPa 0,0 l/m 5,6 km/h (1 Bft) SW 225 0 min -1,2 C -1,7 C 6,1 km/h (2 Bft)
01.12.2016 00:45 0,9 C 2,8 C 1,6 C 0,7 C 0,2 C 0,0 C 86 % 85 % 0 % 1025,6 hPa 0,0 l/m 5,5 km/h (1 Bft) W-SW 247 0 min -1,2 C -1,6 C 8,7 km/h (2 Bft)
01.12.2016 00:50 0,9 C 2,8 C 1,6 C 0,7 C 0,2 C 0,0 C 86 % 85 % 0 % 1025,6 hPa 0,0 l/m 5,3 km/h (1 Bft) W-SW 247 0 min -1,2 C -1,5 C 9,0 km/h (2 Bft)
01.12.2016 00:55 0,9 C 2,8 C 1,6 C 0,6 C 0,1 C 0,0 C 86 % 85 % 0 % 1025,6 hPa 0,0 l/m 5,6 km/h (1 Bft) S 180 0 min -1,2 C -1,7 C 5,5 km/h (1 Bft)
01.12.2016 01:00 0,9 C 2,8 C 1,6 C 0,6 C 0,1 C 0,0 C 86 % 85 % 0 % 1025,0 hPa 0,0 l/m 5,6 km/h (1 Bft) S-SW 202 0 min -1,2 C -1,7 C 9,3 km/h (2 Bft)
01.12.2016 01:05 0,9 C 2,8 C 1,6 C 0,7 C 0,3 C 0,0 C 86 % 85 % 0 % 1025,0 hPa 0,0 l/m 5,3 km/h (1 Bft) W-NW 292 0 min -1,2 C -1,4 C 3,9 km/h (1 Bft)
01.12.2016 01:10 0,9 C 2,8 C 1,7 C 0,7 C 0,2 C 0,0 C 86 % 84 % 0 % 1025,0 hPa 0,7 l/m 5,6 km/h (1 Bft) SW 225 0 min -1,2 C -1,6 C 6,0 km/h (2 Bft)
01.12.2016 01:15 0,9 C 2,8 C 1,6 C 0,7 C 0,3 C 0,0 C 86 % 84 % 0 % 1025,0 hPa 0,0 l/m 5,3 km/h (1 Bft) W-SW 247 0 min -1,2 C -1,4 C 6,4 km/h (2 Bft)
01.12.2016 01:20 1,0 C 2,8 C 1,6 C 0,8 C 0,3 C 0,0 C 86 % 84 % 0 % 1025,1 hPa 0,0 l/m 5,6 km/h (1 Bft) W-SW 247 0 min -1,1 C -1,5 C 4,0 km/h (1 Bft)
01.12.2016 01:25 1,1 C 2,8 C 1,6 C 0,9 C 0,6 C 0,0 C 86 % 84 % 0 % 1025,1 hPa 0,0 l/m 5,0 km/h (1 Bft) W-SW 247 0 min -1,0 C -0,9 C 7,4 km/h (2 Bft)
01.12.2016 01:30 1,1 C 2,8 C 1,6 C 1,0 C 0,7 C 0,0 C 86 % 84 % 0 % 1025,1 hPa 0,0 l/m 4,7 km/h (1 Bft) SW 225 0 min -1,0 C -0,7 C 5,8 km/h (2 Bft)
01.12.2016 01:35 1,1 C 2,8 C 1,6 C 1,0 C 0,8 C 0,0 C 86 % 84 % 0 % 1025,1 hPa 0,0 l/m 4,5 km/h (1 Bft) S 180 0 min -1,0 C 0,8 C 7,6 km/h (2 Bft)
01.12.2016 01:40 1,1 C 2,8 C 1,7 C 0,9 C 0,6 C 0,0 C 86 % 83 % 0 % 1024,9 hPa 0,0 l/m 4,8 km/h (1 Bft) W-SW 247 0 min -1,0 C -0,8 C 8,7 km/h (2 Bft)
01.12.2016 01:45 1,1 C 2,8 C 1,7 C 0,9 C 0,4 C 0,0 C 86 % 83 % 0 % 1024,9 hPa 0,0 l/m 5,5 km/h (1 Bft) W-SW 247 0 min -1,0 C -1,4 C 7,9 km/h (2 Bft)
01.12.2016 01:50 1,1 C 2,8 C 1,7 C 0,9 C 0,4 C 0,0 C 86 % 83 % 0 % 1024,9 hPa 0,0 l/m 5,6 km/h (1 Bft) W 270 0 min -1,0 C -1,4 C 4,8 km/h (1 Bft)
01.12.2016 01:55 1,1 C 2,9 C 1,9 C 0,9 C 0,6 C 0,0 C 86 % 83 % 0 % 1024,9 hPa 0,0 l/m 5,3 km/h (1 Bft) SW 225 0 min -1,0 C -1,0 C 4,5 km/h (1 Bft)
01.12.2016 02:00 1,1 C 2,9 C 1,9 C 0,9 C 0,6 C 0,0 C 86 % 83 % 0 % 1025,0 hPa 0,7 l/m 5,6 km/h (1 Bft) S-SW 202 0 min -1,0 C -1,2 C 6,1 km/h (2 Bft)
01.12.2016 02:05 1,2 C 2,9 C 1,9 C 1,0 C 0,6 C 0,0 C 86 % 83 % 0 % 1025,0 hPa 0,0 l/m 5,6 km/h (1 Bft) W-SW 247 0 min -0,9 C -1,2 C 12,1 km/h (2 Bft)
01.12.2016 02:11 1,2 C 2,9 C 1,9 C 1,0 C 0,6 C 0,0 C 86 % 83 % 0 % 1025,0 hPa 0,0 l/m 6,0 km/h (2 Bft) N 0 0 min -0,9 C -1,3 C 5,5 km/h (1 Bft)
01.12.2016 02:24 1,3 C 2,9 C 2,0 C 1,0 C 0,4 C 0,0 C 86 % 83 % 0 % 1025,2 hPa 0,0 l/m 6,4 km/h (2 Bft) SW 225 0 min -0,8 C -1,7 C 8,9 km/h (2 Bft)
01.12.2016 02:30 1,4 C 2,9 C 2,0 C 1,0 C 0,2 C 0,0 C 86 % 83 % 0 % 1025,2 hPa 0,0 l/m 6,9 km/h (2 Bft) SW 225 0 min -0,7 C -2,1 C 7,4 km/h (2 Bft)
01.12.2016 02:35 1,3 C 2,9 C 2,1 C 1,0 C 0,3 C 0,0 C 86 % 82 % 0 % 1025,2 hPa 0,0 l/m 6,6 km/h (2 Bft) W 270 0 min -0,8 C -1,9 C 6,9 km/h (2 Bft)
01.12.2016 02:40 1,3 C 2,9 C 2,0 C 1,0 C 0,3 C 0,0 C 86 % 82 % 0 % 1024,8 hPa 0,7 l/m 6,8 km/h (2 Bft) W-SW 247 0 min -0,8 C -2,0 C 7,7 km/h (2 Bft)
01.12.2016 02:45 1,3 C 2,9 C 2,0 C 1,0 C 0,3 C 0,0 C 86 % 82 % 0 % 1024,8 hPa 0,0 l/m 6,6 km/h (2 Bft) W 270 0 min -0,8 C -1,9 C 13,7 km/h (3 Bft)
01.12.2016 02:50 1,3 C 2,9 C 2,0 C 1,0 C 0,4 C 0,0 C 86 % 82 % 0 % 1024,8 hPa 0,0 l/m 6,4 km/h (2 Bft) W-SW 247 0 min -0,8 C -1,7 C 6,6 km/h (2 Bft)
01.12.2016 02:55 1,3 C 3,0 C 2,1 C 1,0 C 0,3 C 0,0 C 86 % 82 % 0 % 1024,8 hPa 0,7 l/m 6,6 km/h (2 Bft) S-SW 202 0 min -0,8 C -1,9 C 6,1 km/h (2 Bft)
01.12.2016 03:00 1,3 C 3,0 C 2,0 C 1,0 C 0,3 C 0,0 C 86 % 82 % 0 % 1024,6 hPa 0,0 l/m 6,6 km/h (2 Bft) W 270 0 min -0,8 C -1,9 C 6,8 km/h (2 Bft)
01.12.2016 03:05 1,3 C 3,0 C 2,0 C 1,0 C 0,4 C 0,0 C 86 % 82 % 0 % 1024,6 hPa 0,0 l/m 6,4 km/h (2 Bft) W-SW 247 0 min -0,8 C -1,7 C 9,0 km/h (2 Bft)
01.12.2016 03:10 1,3 C 3,0 C 2,1 C 1,0 C 0,3 C 0,0 C 86 % 82 % 0 % 1024,6 hPa 0,0 l/m 6,6 km/h (2 Bft) W-SW 247 0 min -0,8 C -1,9 C 9,0 km/h (2 Bft)
01.12.2016 03:15 1,3 C 3,0 C 2,0 C 1,0 C 0,3 C 0,0 C 87 % 82 % 0 % 1024,6 hPa 0,7 l/m 6,6 km/h (2 Bft) W 270 0 min -0,6 C -1,9 C 11,6 km/h (2 Bft)
01.12.2016 03:20 1,3 C 3,0 C 2,0 C 1,0 C 0,3 C 0,0 C 87 % 82 % 0 % 1024,3 hPa 0,0 l/m 6,6 km/h (2 Bft) SW 225 0 min -0,6 C -1,9 C 9,8 km/h (2 Bft)
01.12.2016 03:25 1,2 C 3,0 C 2,1 C 1,0 C 0,7 C 0,0 C 87 % 82 % 0 % 1024,3 hPa 0,0 l/m 5,6 km/h (1 Bft) SW 225 0 min -0,7 C -1,1 C 7,1 km/h (2 Bft)
01.12.2016 03:30 1,2 C 3,0 C 2,0 C 1,1 C 1,0 C 0,0 C 87 % 82 % 0 % 1024,3 hPa 0,0 l/m 5,0 km/h (1 Bft) SW 225 0 min -0,7 C -0,5 C 6,1 km/h (2 Bft)
01.12.2016 03:35 1,2 C 3,0 C 2,1 C 1,0 C 0,7 C 0,0 C 87 % 82 % 0 % 1024,3 hPa 0,7 l/m 5,6 km/h (1 Bft) SW 225 0 min -0,7 C -1,1 C 10,9 km/h (2 Bft)
01.12.2016 03:40 1,2 C 3,0 C 2,0 C 1,0 C 0,6 C 0,0 C 87 % 82 % 0 % 1023,9 hPa 0,0 l/m 6,0 km/h (2 Bft) W 270 0 min -0,7 C -1,3 C 7,1 km/h (2 Bft)
01.12.2016 03:45 1,2 C 3,0 C 2,0 C 1,0 C 0,6 C 0,0 C 87 % 81 % 0 % 1023,9 hPa 0,0 l/m 6,0 km/h (2 Bft) W-SW 247 0 min -0,7 C -1,3 C 5,8 km/h (2 Bft)
01.12.2016 03:50 1,2 C 3,2 C 2,1 C 1,0 C 0,7 C 0,0 C 87 % 81 % 0 % 1023,9 hPa 0,0 l/m 5,8 km/h (2 Bft) W-SW 247 0 min -0,7 C -1,1 C 5,0 km/h (1 Bft)
01.12.2016 03:55 1,2 C 3,2 C 2,1 C 1,0 C 0,6 C 0,0 C 87 % 81 % 0 % 1023,9 hPa 0,7 l/m 6,0 km/h (2 Bft) SW 225 0 min -0,7 C -1,3 C 6,8 km/h (2 Bft)
01.12.2016 04:00 1,3 C 3,2 C 2,1 C 1,1 C 0,6 C 0,0 C 87 % 81 % 0 % 1023,8 hPa 0,0 l/m 6,1 km/h (2 Bft) W-SW 247 0 min -0,6 C -1,4 C 8,7 km/h (2 Bft)
01.12.2016 04:05 1,3 C 3,2 C 2,1 C 1,1 C 0,8 C 0,0 C 87 % 81 % 0 % 1023,8 hPa 0,0 l/m 5,8 km/h (2 Bft) SW 225 0 min -0,6 C -1,0 C 9,5 km/h (2 Bft)
01.12.2016 04:11 1,3 C 3,2 C 2,2 C 1,1 C 0,7 C 0,0 C 87 % 81 % 0 % 1023,8 hPa 0,0 l/m 6,0 km/h (2 Bft) N 0 0 min -0,6 C -1,2 C 9,5 km/h (2 Bft)
01.12.2016 04:24 1,5 C 3,2 C 2,3 C 1,2 C 0,7 C 0,0 C 88 % 80 % 0 % 1023,6 hPa 0,0 l/m 6,0 km/h (2 Bft) S 180 0 min -0,3 C -1,2 C 10,3 km/h (2 Bft)
01.12.2016 04:30 1,5 C 3,2 C 2,2 C 1,2 C 0,7 C 0,0 C 88 % 80 % 0 % 1023,6 hPa 0,7 l/m 6,3 km/h (2 Bft) W-SW 247 0 min -0,3 C -1,3 C 8,9 km/h (2 Bft)
01.12.2016 04:35 1,5 C 3,2 C 2,3 C 1,2 C 0,5 C 0,0 C 88 % 80 % 0 % 1023,6 hPa 0,0 l/m 6,9 km/h (2 Bft) S 180 0 min -0,3 C -1,8 C 14,0 km/h (3 Bft)
01.12.2016 04:40 1,5 C 3,2 C 2,3 C 1,4 C 0,3 C 0,0 C 88 % 80 % 0 % 1024,1 hPa 0,0 l/m 7,9 km/h (2 Bft) W-SW 247 0 min -0,3 C -2,4 C 15,6 km/h (3 Bft)
01.12.2016 04:45 1,6 C 3,2 C 2,4 C 1,2 C 0,4 C 0,0 C 88 % 79 % 0 % 1024,1 hPa 0,0 l/m 7,6 km/h (2 Bft) S 180 0 min -0,2 C -2,1 C 6,8 km/h (2 Bft)
01.12.2016 04:50 1,6 C 3,2 C 2,4 C 1,3 C 0,6 C 0,0 C 88 % 79 % 0 % 1024,1 hPa 0,0 l/m 7,2 km/h (2 Bft) SW 225 0 min -0,2 C -1,8 C 8,7 km/h (2 Bft)
01.12.2016 04:55 1,6 C 3,2 C 2,4 C 1,3 C 0,7 C 0,0 C 88 % 79 % 0 % 1024,1 hPa 0,0 l/m 7,1 km/h (2 Bft) SW 225 0 min -0,2 C -1,6 C 7,4 km/h (2 Bft)
01.12.2016 05:00 1,6 C 3,2 C 2,4 C 1,5 C 0,5 C 0,0 C 88 % 79 % 0 % 1023,1 hPa 0,0 l/m 7,7 km/h (2 Bft) W-SW 247 0 min -0,2 C -2,1 C 15,8 km/h (3 Bft)
01.12.2016 05:05 1,6 C 3,3 C 2,4 C 1,5 C 0,4 C 0,0 C 88 % 79 % 0 % 1023,1 hPa 0,0 l/m 8,2 km/h (2 Bft) W-SW 247 0 min -0,2 C -2,3 C 11,9 km/h (2 Bft)
01.12.2016 05:10 1,7 C 3,3 C 2,5 C 1,3 C 0,4 C 0,0 C 88 % 79 % 0 % 1023,1 hPa 0,0 l/m 8,4 km/h (2 Bft) SW 225 0 min -0,1 C -2,4 C 14,0 km/h (3 Bft)
01.12.2016 05:15 1,7 C 3,3 C 2,5 C 1,6 C 0,6 C 0,0 C 88 % 78 % 0 % 1023,1 hPa 0,0 l/m 7,7 km/h (2 Bft) W-SW 247 0 min -0,1 C -1,9 C 10,6 km/h (2 Bft)
01.12.2016 05:20 1,7 C 3,3 C 2,5 C 1,3 C 0,6 C 0,0 C 88 % 78 % 0 % 1023,2 hPa 0,0 l/m 7,6 km/h (2 Bft) S 180 0 min -0,1 C -1,9 C 15,1 km/h (3 Bft)
01.12.2016 05:25 1,7 C 3,3 C 2,5 C 1,4 C 0,7 C 0,0 C 88 % 78 % 0 % 1023,2 hPa 0,0 l/m 7,4 km/h (2 Bft) W-SW 247 0 min -0,1 C -1,7 C 6,1 km/h (2 Bft)
01.12.2016 05:30 1,8 C 3,3 C 2,6 C 1,6 C 0,5 C 0,0 C 87 % 78 % 0 % 1023,2 hPa 0,0 l/m 7,9 km/h (2 Bft) NW 315 0 min -0,1 C -2,1 C 7,1 km/h (2 Bft)
01.12.2016 05:35 1,9 C 3,3 C 2,7 C 1,7 C 0,7 C 0,0 C 87 % 78 % 0 % 1023,2 hPa 0,0 l/m 8,2 km/h (2 Bft) W-SW 247 0 min -0,0 C -2,0 C 16,4 km/h (3 Bft)
01.12.2016 05:40 1,9 C 3,3 C 2,7 C 1,5 C 0,7 C 0,0 C 87 % 78 % 0 % 1023,2 hPa 0,0 l/m 8,7 km/h (2 Bft) W-SW 247 0 min -0,0 C -2,1 C 10,3 km/h (2 Bft)
01.12.2016 05:45 1,9 C 3,3 C 2,7 C 1,8 C 0,8 C 0,0 C 87 % 78 % 0 % 1023,2 hPa 0,0 l/m 8,9 km/h (2 Bft) S-SW 202 0 min -0,0 C -2,1 C 9,5 km/h (2 Bft)
01.12.2016 05:50 1,9 C 3,3 C 2,7 C 1,8 C 0,7 C 0,0 C 87 % 78 % 0 % 1023,2 hPa 0,0 l/m 9,5 km/h (2 Bft) W-SW 247 0 min -0,0 C -2,3 C 13,8 km/h (3 Bft)
01.12.2016 05:55 2,0 C 3,3 C 2,7 C 1,9 C 0,8 C 0,0 C 87 % 78 % 0 % 1023,2 hPa 0,0 l/m 9,8 km/h (2 Bft) SW 225 0 min 0,1 C -2,3 C 18,2 km/h (3 Bft)
01.12.2016 06:00 2,0 C 3,3 C 2,8 C 1,9 C 0,9 C 0,0 C 87 % 78 % 0 % 1022,8 hPa 0,0 l/m 9,3 km/h (2 Bft) W 270 0 min 0,1 C -2,1 C 12,4 km/h (3 Bft)
01.12.2016 06:05 2,1 C 3,3 C 2,9 C 1,7 C 0,9 C 0,0 C 87 % 78 % 0 % 1022,8 hPa 0,0 l/m 9,3 km/h (2 Bft) SW 225 0 min 0,2 C -2,1 C 20,1 km/h (4 Bft)
01.12.2016 06:10 2,0 C 3,3 C 2,9 C 2,0 C 1,1 C 0,0 C 87 % 78 % 0 % 1022,8 hPa 0,0 l/m 9,3 km/h (2 Bft) W 270 0 min 0,1 C -1,8 C 6,8 km/h (2 Bft)
01.12.2016 06:15 2,0 C 3,4 C 2,9 C 1,9 C 0,7 C 0,0 C 87 % 78 % 0 % 1022,8 hPa 0,0 l/m 9,5 km/h (2 Bft) W 270 0 min 0,1 C -2,3 C 11,3 km/h (2 Bft)
01.12.2016 06:20 2,0 C 3,4 C 2,8 C 1,9 C 0,8 C 0,0 C 87 % 78 % 0 % 1023,0 hPa 0,0 l/m 9,3 km/h (2 Bft) S-SW 202 0 min 0,1 C -2,2 C 12,7 km/h (3 Bft)
01.12.2016 06:25 2,1 C 3,4 C 2,8 C 1,9 C 0,7 C 0,0 C 86 % 78 % 0 % 1023,0 hPa 0,0 l/m 9,5 km/h (2 Bft) SW 225 0 min 0,0 C -2,3 C 13,7 km/h (3 Bft)
01.12.2016 06:30 2,1 C 3,4 C 2,8 C 1,6 C 0,7 C 0,0 C 86 % 78 % 0 % 1023,0 hPa 0,0 l/m 9,5 km/h (2 Bft) W-SW 247 0 min 0,0 C -2,3 C 17,2 km/h (3 Bft)
01.12.2016 06:35 2,2 C 3,4 C 2,9 C 1,7 C 0,7 C 0,0 C 86 % 78 % 0 % 1023,0 hPa 0,0 l/m 9,5 km/h (2 Bft) NW 315 0 min 0,1 C -2,3 C 10,8 km/h (2 Bft)
01.12.2016 06:40 2,3 C 3,4 C 2,8 C 1,8 C 0,7 C 0,0 C 86 % 78 % 0 % 1023,0 hPa 0,0 l/m 9,8 km/h (2 Bft) SW 225 0 min 0,2 C -2,4 C 12,4 km/h (3 Bft)
01.12.2016 06:45 2,2 C 3,4 C 2,8 C 2,0 C 0,8 C 0,0 C 86 % 78 % 0 % 1023,0 hPa 0,0 l/m 10,1 km/h (2 Bft) SW 225 0 min 0,1 C -2,4 C 9,3 km/h (2 Bft)
01.12.2016 06:50 2,3 C 3,4 C 2,8 C 2,1 C 0,9 C 0,0 C 86 % 78 % 0 % 1023,0 hPa 0,0 l/m 9,8 km/h (2 Bft) W-SW 247 0 min 0,2 C -2,2 C 9,3 km/h (2 Bft)
01.12.2016 06:55 2,4 C 3,4 C 2,9 C 2,3 C 1,3 C 0,0 C 86 % 78 % 0 % 1023,0 hPa 0,0 l/m 9,3 km/h (2 Bft) SW 225 0 min 0,3 C -1,6 C 10,0 km/h (2 Bft)
01.12.2016 07:00 2,5 C 3,4 C 2,9 C 2,4 C 1,4 C 0,0 C 86 % 78 % 0 % 1022,4 hPa 0,0 l/m 9,3 km/h (2 Bft) S 180 0 min 0,4 C -1,5 C 11,4 km/h (2 Bft)
01.12.2016 07:05 2,4 C 3,4 C 2,9 C 2,3 C 1,5 C 0,0 C 86 % 78 % 0 % 1022,4 hPa 0,0 l/m 8,7 km/h (2 Bft) S 180 0 min 0,3 C -1,2 C 9,7 km/h (2 Bft)
01.12.2016 07:10 2,4 C 3,4 C 2,9 C 2,4 C 1,7 C 0,0 C 86 % 79 % 0 % 1022,4 hPa 0,0 l/m 7,9 km/h (2 Bft) W-SW 247 0 min 0,3 C -0,7 C 9,2 km/h (2 Bft)
01.12.2016 07:15 2,4 C 3,4 C 2,9 C 2,2 C 1,7 C 0,0 C 86 % 79 % 0 % 1022,4 hPa 0,0 l/m 7,9 km/h (2 Bft) SW 225 0 min 0,3 C -0,7 C 8,4 km/h (2 Bft)
01.12.2016 07:20 2,5 C 3,4 C 3,0 C 2,5 C 1,6 C 0,0 C 86 % 79 % 0 % 1022,4 hPa 0,0 l/m 8,5 km/h (2 Bft) W-SW 247 0 min 0,4 C -1,0 C 12,2 km/h (2 Bft)
01.12.2016 07:25 2,5 C 3,4 C 3,0 C 2,2 C 1,6 C 0,0 C 86 % 79 % 0 % 1022,4 hPa 0,0 l/m 9,0 km/h (2 Bft) W-SW 247 0 min 0,4 C -1,1 C 13,4 km/h (3 Bft)
01.12.2016 07:30 2,6 C 3,4 C 3,0 C 2,5 C 1,4 C 0,0 C 86 % 79 % 0 % 1022,4 hPa 0,0 l/m 9,5 km/h (2 Bft) W-SW 247 0 min 0,5 C -1,5 C 12,9 km/h (3 Bft)
01.12.2016 07:35 2,6 C 3,5 C 3,1 C 2,2 C 1,4 C 0,0 C 86 % 79 % 0 % 1022,4 hPa 0,0 l/m 9,5 km/h (2 Bft) S-SW 202 0 min 0,5 C -1,5 C 10,9 km/h (2 Bft)
01.12.2016 07:40 2,5 C 3,5 C 3,1 C 2,4 C 1,6 C 0,0 C 86 % 79 % 0 % 1022,0 hPa 0,0 l/m 9,2 km/h (2 Bft) W-SW 247 0 min 0,4 C -1,2 C 13,4 km/h (3 Bft)
01.12.2016 07:45 2,6 C 3,5 C 3,0 C 2,5 C 1,5 C 0,0 C 86 % 79 % 0 % 1022,0 hPa 0,0 l/m 9,3 km/h (2 Bft) SW 225 0 min 0,5 C -1,3 C 9,3 km/h (2 Bft)
01.12.2016 07:50 2,5 C 3,5 C 3,1 C 2,4 C 1,6 C 0,0 C 86 % 79 % 0 % 1022,0 hPa 0,0 l/m 9,0 km/h (2 Bft) W-SW 247 0 min 0,4 C -1,1 C 13,5 km/h (3 Bft)
01.12.2016 07:55 2,5 C 3,5 C 3,1 C 2,4 C 1,3 C 0,0 C 86 % 79 % 0 % 1022,0 hPa 0,0 l/m 8,7 km/h (2 Bft) W-SW 247 0 min 0,4 C -1,4 C 6,8 km/h (2 Bft)
01.12.2016 08:00 2,4 C 3,5 C 3,1 C 2,0 C 1,3 C 0,0 C 86 % 79 % 0 % 1022,1 hPa 0,0 l/m 8,0 km/h (2 Bft) SW 225 0 min 0,3 C -1,2 C 9,7 km/h (2 Bft)
01.12.2016 08:05 2,4 C 3,5 C 3,1 C 2,3 C 1,2 C 0,0 C 86 % 79 % 0 % 1022,1 hPa 0,0 l/m 8,0 km/h (2 Bft) W-SW 247 0 min 0,3 C -1,3 C 11,7 km/h (2 Bft)
01.12.2016 08:10 2,4 C 3,5 C 3,0 C 2,2 C 1,1 C 0,0 C 86 % 79 % 0 % 1022,1 hPa 0,0 l/m 8,5 km/h (2 Bft) W-SW 247 0 min 0,3 C -1,6 C 9,0 km/h (2 Bft)
01.12.2016 08:15 2,3 C 3,5 C 3,0 C 2,2 C 1,2 C 0,0 C 86 % 79 % 0 % 1022,1 hPa 0,0 l/m 8,0 km/h (2 Bft) SW 225 0 min 0,2 C -1,3 C 12,9 km/h (3 Bft)
01.12.2016 08:20 2,3 C 3,5 C 3,1 C 1,9 C 1,2 C 0,0 C 86 % 79 % 0 % 1021,9 hPa 0,0 l/m 8,2 km/h (2 Bft) W-SW 247 0 min 0,2 C -1,4 C 7,7 km/h (2 Bft)
01.12.2016 08:25 2,3 C 3,5 C 3,1 C 2,2 C 1,1 C 0,0 C 86 % 80 % 0 % 1021,9 hPa 0,0 l/m 8,2 km/h (2 Bft) W-SW 247 0 min 0,2 C -1,5 C 10,6 km/h (2 Bft)
01.12.2016 08:30 2,2 C 3,5 C 3,1 C 1,8 C 1,1 C 0,0 C 86 % 80 % 0 % 1021,9 hPa 0,0 l/m 7,9 km/h (2 Bft) W-SW 247 0 min 0,1 C -1,4 C 10,0 km/h (2 Bft)
01.12.2016 08:35 2,1 C 3,6 C 3,0 C 1,8 C 1,1 C 0,0 C 86 % 80 % 0 % 1021,9 hPa 0,0 l/m 7,9 km/h (2 Bft) SW 225 0 min 0,0 C -1,4 C 8,9 km/h (2 Bft)
01.12.2016 08:40 2,1 C 3,6 C 3,1 C 1,8 C 1,2 C 0,0 C 86 % 80 % 0 % 1021,9 hPa 0,0 l/m 7,6 km/h (2 Bft) SW 225 0 min 0,0 C -1,2 C 12,1 km/h (2 Bft)
01.12.2016 08:45 2,1 C 3,6 C 3,1 C 2,0 C 1,0 C 0,0 C 87 % 79 % 0 % 1021,9 hPa 0,0 l/m 8,5 km/h (2 Bft) SW 225 0 min 0,2 C -1,7 C 11,3 km/h (2 Bft)
01.12.2016 08:50 2,1 C 3,6 C 3,0 C 2,0 C 1,1 C 0,0 C 87 % 79 % 0 % 1021,9 hPa 0,0 l/m 8,0 km/h (2 Bft) SW 225 0 min 0,2 C -1,4 C 7,7 km/h (2 Bft)
01.12.2016 08:55 2,1 C 3,6 C 3,0 C 1,9 C 1,4 C 0,0 C 87 % 79 % 0 % 1021,9 hPa 0,0 l/m 6,9 km/h (2 Bft) SW 225 0 min 0,2 C -0,7 C 7,7 km/h (2 Bft)
01.12.2016 09:00 2,1 C 3,6 C 3,1 C 1,9 C 1,4 C 0,0 C 87 % 79 % 0 % 1022,2 hPa 0,0 l/m 7,2 km/h (2 Bft) W-SW 247 0 min 0,2 C -0,8 C 10,3 km/h (2 Bft)
01.12.2016 09:05 2,3 C 3,6 C 3,1 C 2,2 C 1,2 C 0,0 C 87 % 79 % 0 % 1022,2 hPa 0,0 l/m 8,0 km/h (2 Bft) SW 225 0 min 0,4 C -1,3 C 9,7 km/h (2 Bft)
01.12.2016 09:10 2,3 C 3,6 C 3,1 C 1,9 C 1,2 C 0,0 C 87 % 79 % 0 % 1022,2 hPa 0,0 l/m 8,0 km/h (2 Bft) W-SW 247 0 min 0,4 C -1,3 C 13,4 km/h (3 Bft)
01.12.2016 09:15 2,3 C 3,6 C 3,2 C 2,2 C 1,4 C 0,0 C 87 % 79 % 0 % 1022,2 hPa 0,0 l/m 7,9 km/h (2 Bft) SW 225 0 min 0,4 C -1,1 C 6,0 km/h (2 Bft)
01.12.2016 09:20 2,2 C 3,6 C 3,2 C 2,1 C 1,3 C 0,0 C 87 % 79 % 0 % 1021,6 hPa 0,0 l/m 8,0 km/h (2 Bft) S-SO 157 0 min 0,3 C -1,2 C 9,0 km/h (2 Bft)
01.12.2016 09:25 2,3 C 3,6 C 3,2 C 2,0 C 1,5 C 0,0 C 87 % 79 % 0 % 1021,6 hPa 0,0 l/m 7,4 km/h (2 Bft) SW 225 0 min 0,4 C -0,8 C 8,7 km/h (2 Bft)
01.12.2016 09:30 2,3 C 3,6 C 3,3 C 2,1 C 1,6 C 0,0 C 87 % 79 % 0 % 1021,6 hPa 0,0 l/m 7,6 km/h (2 Bft) W 270 0 min 0,4 C -0,7 C 11,7 km/h (2 Bft)
01.12.2016 09:35 2,4 C 3,6 C 3,5 C 2,3 C 2,0 C 0,0 C 87 % 79 % 0 % 1021,6 hPa 0,0 l/m 7,4 km/h (2 Bft) W 270 0 min 0,5 C -0,2 C 6,1 km/h (2 Bft)
01.12.2016 09:40 2,6 C 3,6 C 3,5 C 2,4 C 2,0 C 0,0 C 87 % 78 % 0 % 1021,4 hPa 0,0 l/m 7,7 km/h (2 Bft) W-SW 247 0 min 0,7 C -0,3 C 10,1 km/h (2 Bft)
01.12.2016 09:45 2,7 C 3,6 C 3,5 C 2,6 C 2,3 C 0,0 C 87 % 78 % 0 % 1021,4 hPa 0,0 l/m 7,6 km/h (2 Bft) SW 225 0 min 0,8 C 0,1 C 10,0 km/h (2 Bft)
01.12.2016 09:50 2,8 C 3,6 C 3,7 C 2,6 C 2,3 C 0,0 C 87 % 78 % 0 % 1021,4 hPa 0,0 l/m 8,5 km/h (2 Bft) W-SW 247 0 min 0,9 C -0,2 C 9,7 km/h (2 Bft)
01.12.2016 09:55 2,9 C 3,6 C 3,6 C 2,7 C 2,3 C 0,0 C 87 % 78 % 0 % 1021,4 hPa 0,0 l/m 9,3 km/h (2 Bft) W 270 0 min 1,0 C -0,4 C 11,3 km/h (2 Bft)
01.12.2016 10:00 3,1 C 3,6 C 3,7 C 3,2 C 2,5 C 0,1 C 86 % 78 % 3 % 1021,4 hPa 0,0 l/m 9,2 km/h (2 Bft) S 180 0 min 1,0 C -0,1 C 10,3 km/h (2 Bft)
01.12.2016 10:05 3,2 C 3,6 C 3,8 C 3,2 C 2,3 C 0,0 C 86 % 78 % 0 % 1021,4 hPa 0,0 l/m 10,0 km/h (2 Bft) SW 225 0 min 1,1 C -0,6 C 15,6 km/h (3 Bft)
01.12.2016 10:10 3,3 C 3,7 C 3,8 C 3,2 C 2,1 C 0,0 C 86 % 78 % 0 % 1021,4 hPa 0,0 l/m 10,5 km/h (2 Bft) W 270 0 min 1,2 C -0,9 C 21,4 km/h (4 Bft)
01.12.2016 10:15 3,3 C 3,7 C 3,9 C 3,2 C 1,9 C 0,0 C 86 % 78 % 0 % 1021,4 hPa 0,0 l/m 11,1 km/h (2 Bft) W 270 0 min 1,2 C -1,3 C 25,6 km/h (4 Bft)
01.12.2016 10:20 3,4 C 3,7 C 4,0 C 2,9 C 1,9 C 0,0 C 86 % 78 % 0 % 1021,3 hPa 0,0 l/m 11,3 km/h (2 Bft) W-SW 247 0 min 1,3 C -1,3 C 9,8 km/h (2 Bft)
01.12.2016 10:25 3,5 C 3,7 C 4,1 C 3,3 C 2,5 C 0,0 C 85 % 78 % 0 % 1021,3 hPa 0,0 l/m 8,7 km/h (2 Bft) W-SW 247 0 min 1,2 C 0,0 C 9,8 km/h (2 Bft)
01.12.2016 10:30 3,5 C 3,7 C 4,1 C 3,4 C 2,2 C 0,0 C 85 % 78 % 0 % 1021,3 hPa 0,0 l/m 10,0 km/h (2 Bft) W-SW 247 0 min 1,2 C -0,7 C 14,5 km/h (3 Bft)
01.12.2016 10:35 3,6 C 3,7 C 4,0 C 3,4 C 2,0 C 0,0 C 85 % 79 % 0 % 1021,3 hPa 0,0 l/m 10,9 km/h (2 Bft) W-SW 247 0 min 1,3 C -1,1 C 26,9 km/h (4 Bft)
01.12.2016 10:40 3,6 C 3,7 C 4,0 C 3,4 C 2,1 C 0,0 C 85 % 79 % 0 % 1021,6 hPa 0,0 l/m 10,5 km/h (2 Bft) SW 225 0 min 1,3 C -0,9 C 16,7 km/h (3 Bft)
01.12.2016 10:45 3,7 C 3,7 C 4,1 C 3,5 C 2,2 C 0,0 C 85 % 79 % 0 % 1021,6 hPa 0,0 l/m 11,6 km/h (2 Bft) W-SW 247 0 min 1,4 C -1,1 C 28,2 km/h (4 Bft)
01.12.2016 10:50 3,8 C 3,7 C 4,1 C 3,6 C 2,5 C 0,0 C 85 % 79 % 0 % 1021,6 hPa 0,0 l/m 11,4 km/h (2 Bft) W-SW 247 0 min 1,5 C -0,6 C 10,3 km/h (2 Bft)
01.12.2016 10:55 3,8 C 3,7 C 4,1 C 3,7 C 2,9 C 0,0 C 85 % 80 % 0 % 1021,6 hPa 0,0 l/m 9,8 km/h (2 Bft) SW 225 0 min 1,5 C 0,2 C 9,2 km/h (2 Bft)
01.12.2016 11:00 3,9 C 3,7 C 4,3 C 3,8 C 3,1 C 0,0 C 85 % 80 % 0 % 1021,1 hPa 0,0 l/m 9,3 km/h (2 Bft) SW 225 0 min 1,6 C 0,6 C 19,6 km/h (3 Bft)
01.12.2016 11:05 4,0 C 3,8 C 4,2 C 3,9 C 2,9 C 0,0 C 85 % 81 % 0 % 1021,1 hPa 0,0 l/m 9,7 km/h (2 Bft) W-SW 247 0 min 1,7 C 0,2 C 10,5 km/h (2 Bft)
01.12.2016 11:10 4,1 C 3,8 C 4,3 C 3,9 C 2,8 C 0,0 C 85 % 81 % 0 % 1021,1 hPa 0,0 l/m 10,1 km/h (2 Bft) W-SW 247 0 min 1,8 C 0,0 C 6,9 km/h (2 Bft)
01.12.2016 11:15 4,0 C 3,8 C 4,2 C 3,6 C 2,8 C 0,0 C 85 % 81 % 0 % 1021,1 hPa 0,0 l/m 10,1 km/h (2 Bft) SW 225 0 min 1,7 C 0,0 C 7,2 km/h (2 Bft)
01.12.2016 11:20 4,1 C 3,8 C 4,3 C 3,9 C 2,9 C 0,0 C 85 % 82 % 0 % 1020,8 hPa 0,0 l/m 9,8 km/h (2 Bft) SW 225 0 min 1,8 C 0,2 C 9,3 km/h (2 Bft)
01.12.2016 11:25 4,3 C 3,8 C 4,4 C 4,2 C 3,3 C 0,0 C 85 % 82 % 0 % 1020,8 hPa 0,0 l/m 9,2 km/h (2 Bft) SW 225 0 min 2,0 C 0,8 C 6,3 km/h (2 Bft)
01.12.2016 11:30 4,3 C 3,8 C 4,5 C 4,2 C 3,2 C 0,0 C 85 % 83 % 0 % 1020,8 hPa 0,0 l/m 10,5 km/h (2 Bft) SW 225 0 min 2,0 C 0,4 C 13,4 km/h (3 Bft)
01.12.2016 11:35 4,4 C 3,8 C 4,5 C 4,3 C 3,3 C 0,0 C 85 % 83 % 0 % 1020,8 hPa 0,0 l/m 11,1 km/h (2 Bft) S-SW 202 0 min 2,1 C 0,4 C 9,3 km/h (2 Bft)
01.12.2016 11:40 4,5 C 3,8 C 4,7 C 4,4 C 3,2 C 0,0 C 84 % 84 % 0 % 1020,4 hPa 0,0 l/m 11,4 km/h (2 Bft) SW 225 0 min 2,0 C 0,2 C 17,2 km/h (3 Bft)
01.12.2016 11:45 4,5 C 3,8 C 4,8 C 4,4 C 3,6 C 0,0 C 84 % 85 % 0 % 1020,4 hPa 0,0 l/m 10,6 km/h (2 Bft) W-SW 247 0 min 2,0 C 0,9 C 9,7 km/h (2 Bft)
01.12.2016 11:50 4,6 C 3,8 C 4,8 C 4,6 C 3,8 C 0,0 C 85 % 85 % 0 % 1020,4 hPa 0,0 l/m 10,5 km/h (2 Bft) W-SW 247 0 min 2,3 C 1,1 C 16,1 km/h (3 Bft)
01.12.2016 11:55 4,7 C 3,8 C 5,1 C 4,4 C 3,8 C 0,0 C 84 % 86 % 0 % 1020,4 hPa 0,0 l/m 10,5 km/h (2 Bft) W-SW 247 0 min 2,2 C 1,1 C 11,7 km/h (2 Bft)
01.12.2016 12:00 4,7 C 3,8 C 5,1 C 4,4 C 3,8 C 0,0 C 84 % 87 % 0 % 1020,4 hPa 0,0 l/m 10,9 km/h (2 Bft) SW 225 0 min 2,2 C 1,0 C 12,6 km/h (3 Bft)
01.12.2016 12:05 4,8 C 3,9 C 5,2 C 4,8 C 4,0 C 0,0 C 84 % 88 % 0 % 1020,4 hPa 0,0 l/m 10,6 km/h (2 Bft) W-NW 292 0 min 2,3 C 1,3 C 14,5 km/h (3 Bft)
01.12.2016 12:10 4,8 C 3,9 C 5,2 C 4,8 C 4,1 C 0,0 C 84 % 88 % 0 % 1020,4 hPa 0,0 l/m 10,3 km/h (2 Bft) W-SW 247 0 min 2,3 C 1,5 C 11,6 km/h (2 Bft)
01.12.2016 12:15 4,9 C 3,9 C 5,3 C 4,9 C 4,2 C 0,0 C 84 % 89 % 0 % 1020,4 hPa 0,0 l/m 10,0 km/h (2 Bft) SW 225 0 min 2,4 C 1,7 C 11,4 km/h (2 Bft)
01.12.2016 12:20 5,0 C 3,9 C 5,3 C 5,0 C 4,3 C 0,0 C 84 % 89 % 0 % 1020,1 hPa 0,0 l/m 10,1 km/h (2 Bft) SW 225 0 min 2,5 C 1,8 C 8,2 km/h (2 Bft)
01.12.2016 12:25 5,0 C 3,9 C 5,5 C 4,8 C 4,3 C 0,0 C 84 % 89 % 0 % 1020,1 hPa 0,0 l/m 9,8 km/h (2 Bft) W 270 0 min 2,5 C 1,9 C 14,0 km/h (3 Bft)
01.12.2016 12:30 5,1 C 3,9 C 5,5 C 4,8 C 4,3 C 0,0 C 84 % 89 % 0 % 1020,1 hPa 0,0 l/m 10,1 km/h (2 Bft) W-SW 247 0 min 2,6 C 1,8 C 15,9 km/h (3 Bft)
01.12.2016 12:35 5,1 C 3,9 C 5,5 C 4,8 C 4,3 C 0,0 C 84 % 89 % 0 % 1020,1 hPa 0,0 l/m 10,6 km/h (2 Bft) W 270 0 min 2,6 C 1,7 C 15,1 km/h (3 Bft)
01.12.2016 12:40 5,1 C 3,9 C 5,4 C 4,8 C 4,3 C 0,0 C 84 % 89 % 0 % 1019,6 hPa 0,0 l/m 10,8 km/h (2 Bft) SW 225 0 min 2,6 C 1,6 C 12,2 km/h (2 Bft)
01.12.2016 12:45 5,1 C 3,9 C 5,4 C 5,0 C 3,9 C 0,0 C 84 % 90 % 0 % 1019,6 hPa 0,0 l/m 11,4 km/h (2 Bft) W-SW 247 0 min 2,6 C 1,0 C 11,6 km/h (2 Bft)
01.12.2016 12:50 5,1 C 3,9 C 5,3 C 4,9 C 3,7 C 0,0 C 84 % 90 % 0 % 1019,6 hPa 0,0 l/m 12,4 km/h (3 Bft) SW 225 0 min 2,6 C 0,6 C 14,5 km/h (3 Bft)
01.12.2016 12:55 5,1 C 4,1 C 5,3 C 4,6 C 3,7 C 0,0 C 84 % 90 % 0 % 1019,6 hPa 0,0 l/m 12,1 km/h (2 Bft) W-SW 247 0 min 2,6 C 0,7 C 14,0 km/h (3 Bft)
01.12.2016 13:00 5,1 C 4,1 C 5,3 C 4,9 C 3,9 C 0,0 C 84 % 90 % 0 % 1019,6 hPa 0,0 l/m 11,1 km/h (2 Bft) W-SW 247 0 min 2,6 C 1,1 C 13,7 km/h (3 Bft)
01.12.2016 13:05 5,1 C 4,1 C 5,5 C 5,0 C 4,1 C 0,0 C 84 % 90 % 0 % 1019,6 hPa 0,0 l/m 10,3 km/h (2 Bft) SW 225 0 min 2,6 C 1,5 C 14,8 km/h (3 Bft)
01.12.2016 13:10 5,1 C 4,1 C 5,5 C 5,0 C 4,3 C 0,0 C 84 % 90 % 0 % 1019,6 hPa 0,0 l/m 10,3 km/h (2 Bft) SW 225 0 min 2,6 C 1,8 C 11,4 km/h (2 Bft)
01.12.2016 13:15 5,1 C 4,1 C 5,5 C 5,0 C 3,8 C 0,0 C 84 % 90 % 0 % 1019,6 hPa 0,0 l/m 11,6 km/h (2 Bft) W 270 0 min 2,6 C 0,9 C 18,7 km/h (3 Bft)
01.12.2016 13:20 5,1 C 4,1 C 5,3 C 4,9 C 3,7 C 0,0 C 84 % 90 % 0 % 1019,9 hPa 0,0 l/m 11,1 km/h (2 Bft) SW 225 0 min 2,6 C 0,9 C 9,2 km/h (2 Bft)
01.12.2016 13:25 5,1 C 4,1 C 5,2 C 4,6 C 3,7 C 0,0 C 84 % 90 % 0 % 1019,9 hPa 0,0 l/m 10,3 km/h (2 Bft) W-SW 247 0 min 2,6 C 1,0 C 14,3 km/h (3 Bft)
01.12.2016 13:30 5,1 C 4,1 C 5,2 C 4,8 C 3,4 C 0,0 C 84 % 90 % 0 % 1019,9 hPa 0,0 l/m 10,3 km/h (2 Bft) S-SW 202 0 min 2,6 C 0,7 C 5,8 km/h (2 Bft)
01.12.2016 13:35 5,0 C 4,1 C 5,3 C 4,7 C 3,3 C 0,0 C 84 % 90 % 0 % 1019,9 hPa 0,0 l/m 11,1 km/h (2 Bft) W-SW 247 0 min 2,5 C 0,4 C 19,3 km/h (3 Bft)
01.12.2016 13:40 5,1 C 4,1 C 5,2 C 4,8 C 3,4 C 0,0 C 84 % 90 % 0 % 1019,4 hPa 0,0 l/m 10,3 km/h (2 Bft) S 180 0 min 2,6 C 0,7 C 6,4 km/h (2 Bft)
01.12.2016 13:45 5,0 C 4,1 C 5,2 C 4,8 C 3,7 C 0,0 C 84 % 90 % 0 % 1019,4 hPa 0,0 l/m 10,3 km/h (2 Bft) SW 225 0 min 2,5 C 1,0 C 9,2 km/h (2 Bft)
01.12.2016 13:50 5,0 C 4,2 C 5,3 C 4,8 C 3,6 C 0,0 C 84 % 90 % 0 % 1019,4 hPa 0,0 l/m 10,5 km/h (2 Bft) W-SW 247 0 min 2,5 C 0,9 C 13,0 km/h (3 Bft)
01.12.2016 13:55 4,9 C 4,2 C 5,1 C 4,7 C 3,4 C 0,0 C 84 % 91 % 0 % 1019,4 hPa 0,0 l/m 9,8 km/h (2 Bft) W-SW 247 0 min 2,4 C 0,8 C 20,1 km/h (4 Bft)
01.12.2016 14:00 4,8 C 4,2 C 5,1 C 4,5 C 3,1 C 0,0 C 84 % 91 % 0 % 1019,6 hPa 0,0 l/m 10,1 km/h (2 Bft) W-SW 247 0 min 2,3 C 0,4 C 8,0 km/h (2 Bft)
01.12.2016 14:05 4,9 C 4,2 C 5,1 C 4,5 C 2,8 C 0,0 C 84 % 91 % 0 % 1019,6 hPa 0,0 l/m 11,6 km/h (2 Bft) W-SW 247 0 min 2,4 C -0,3 C 9,2 km/h (2 Bft)
01.12.2016 14:10 4,9 C 4,2 C 5,1 C 4,2 C 2,8 C 0,0 C 84 % 91 % 0 % 1019,6 hPa 0,0 l/m 12,1 km/h (2 Bft) W-SW 247 0 min 2,4 C -0,4 C 18,3 km/h (3 Bft)
01.12.2016 14:15 4,8 C 4,2 C 5,1 C 4,5 C 3,2 C 0,0 C 84 % 90 % 0 % 1019,6 hPa 0,0 l/m 11,4 km/h (2 Bft) SW 225 0 min 2,3 C 0,2 C 10,6 km/h (2 Bft)
01.12.2016 14:20 4,9 C 4,2 C 5,1 C 4,6 C 3,3 C 0,0 C 84 % 91 % 0 % 1018,8 hPa 0,0 l/m 11,1 km/h (2 Bft) SW 225 0 min 2,4 C 0,4 C 11,7 km/h (2 Bft)
01.12.2016 14:25 4,9 C 4,2 C 5,1 C 4,4 C 3,3 C 0,0 C 84 % 91 % 0 % 1018,8 hPa 0,0 l/m 10,6 km/h (2 Bft) SW 225 0 min 2,4 C 0,5 C 9,5 km/h (2 Bft)
01.12.2016 14:30 4,8 C 4,2 C 5,1 C 4,3 C 3,3 C 0,0 C 84 % 91 % 0 % 1018,8 hPa 0,0 l/m 10,9 km/h (2 Bft) W-SW 247 0 min 2,3 C 0,4 C 15,4 km/h (3 Bft)
01.12.2016 14:35 4,8 C 4,2 C 5,1 C 4,6 C 3,2 C 0,0 C 84 % 91 % 0 % 1018,8 hPa 0,0 l/m 11,6 km/h (2 Bft) SW 225 0 min 2,3 C 0,2 C 17,4 km/h (3 Bft)
01.12.2016 14:40 4,7 C 4,2 C 5,1 C 4,4 C 2,8 C 0,0 C 84 % 90 % 0 % 1018,3 hPa 0,0 l/m 13,0 km/h (3 Bft) S-SW 202 0 min 2,2 C -0,6 C 13,7 km/h (3 Bft)
01.12.2016 14:45 4,5 C 4,3 C 4,9 C 4,2 C 2,4 C 0,0 C 84 % 91 % 0 % 1018,3 hPa 0,0 l/m 13,2 km/h (3 Bft) W-SW 247 0 min 2,0 C -1,1 C 14,8 km/h (3 Bft)
01.12.2016 14:50 4,3 C 4,3 C 4,8 C 4,0 C 2,3 C 0,0 C 85 % 91 % 0 % 1018,3 hPa 0,0 l/m 13,2 km/h (3 Bft) W-SW 247 0 min 2,0 C -1,3 C 20,3 km/h (4 Bft)
01.12.2016 14:55 4,0 C 4,3 C 4,7 C 3,7 C 2,1 C 0,0 C 85 % 91 % 0 % 1018,3 hPa 0,0 l/m 12,7 km/h (3 Bft) SW 225 0 min 1,7 C -1,4 C 17,4 km/h (3 Bft)
01.12.2016 15:00 4,0 C 4,3 C 4,7 C 3,7 C 2,2 C 0,0 C 85 % 91 % 0 % 1019,1 hPa 0,0 l/m 12,2 km/h (2 Bft) SW 225 0 min 1,7 C -1,2 C 13,4 km/h (3 Bft)
01.12.2016 15:05 3,8 C 4,3 C 4,7 C 3,6 C 2,1 C 0,0 C 85 % 91 % 0 % 1019,1 hPa 0,0 l/m 12,4 km/h (3 Bft) W-SW 247 0 min 1,5 C -1,3 C 20,0 km/h (4 Bft)
01.12.2016 15:10 3,8 C 4,3 C 4,7 C 3,6 C 2,2 C 0,0 C 85 % 91 % 0 % 1019,1 hPa 0,0 l/m 11,4 km/h (2 Bft) W-SW 247 0 min 1,5 C -1,0 C 12,6 km/h (3 Bft)
01.12.2016 15:15 3,6 C 4,3 C 4,7 C 3,4 C 2,3 C 0,0 C 85 % 91 % 0 % 1019,1 hPa 0,0 l/m 10,6 km/h (2 Bft) W-SW 247 0 min 1,3 C -0,7 C 15,3 km/h (3 Bft)
01.12.2016 15:20 3,6 C 4,3 C 4,7 C 3,4 C 2,2 C 0,0 C 86 % 91 % 0 % 1019,2 hPa 0,0 l/m 10,9 km/h (2 Bft) SW 225 0 min 1,5 C -0,9 C 12,7 km/h (3 Bft)
01.12.2016 15:25 3,5 C 4,3 C 4,6 C 3,1 C 2,2 C 0,0 C 86 % 90 % 0 % 1019,2 hPa 0,0 l/m 10,6 km/h (2 Bft) S-SW 202 0 min 1,4 C -0,8 C 10,6 km/h (2 Bft)
01.12.2016 15:30 3,5 C 4,3 C 4,6 C 3,4 C 2,3 C 0,0 C 86 % 90 % 0 % 1019,2 hPa 0,0 l/m 10,0 km/h (2 Bft) W-SW 247 0 min 1,4 C -0,6 C 12,1 km/h (2 Bft)
01.12.2016 15:35 3,4 C 4,3 C 4,5 C 3,3 C 2,4 C 0,0 C 86 % 90 % 0 % 1019,2 hPa 0,0 l/m 9,5 km/h (2 Bft) W-SW 247 0 min 1,3 C -0,3 C 10,5 km/h (2 Bft)
01.12.2016 15:40 3,5 C 4,3 C 4,5 C 3,4 C 2,3 C 0,0 C 86 % 90 % 0 % 1018,8 hPa 0,0 l/m 9,7 km/h (2 Bft) W-SW 247 0 min 1,4 C -0,5 C 14,8 km/h (3 Bft)
01.12.2016 15:45 3,5 C 4,3 C 4,4 C 3,1 C 2,3 C 0,0 C 86 % 89 % 0 % 1018,8 hPa 0,0 l/m 9,5 km/h (2 Bft) N 360 0 min 1,4 C -0,4 C 12,7 km/h (3 Bft)
01.12.2016 15:50 3,5 C 4,3 C 4,5 C 3,1 C 2,3 C 0,0 C 86 % 89 % 0 % 1018,8 hPa 0,0 l/m 9,7 km/h (2 Bft) SW 225 0 min 1,4 C -0,5 C 9,3 km/h (2 Bft)
01.12.2016 15:55 3,5 C 4,3 C 4,5 C 3,1 C 2,3 C 0,0 C 86 % 88 % 0 % 1018,8 hPa 0,0 l/m 9,5 km/h (2 Bft) W-SW 247 0 min 1,4 C -0,4 C 13,5 km/h (3 Bft)
01.12.2016 16:00 3,5 C 4,3 C 4,5 C 3,3 C 2,2 C 0,0 C 86 % 88 % 0 % 1018,2 hPa 0,0 l/m 10,0 km/h (2 Bft) W 270 0 min 1,4 C -0,7 C 13,0 km/h (3 Bft)
01.12.2016 16:05 3,6 C 4,3 C 4,5 C 3,4 C 2,4 C 0,0 C 86 % 88 % 0 % 1018,2 hPa 0,0 l/m 9,7 km/h (2 Bft) S 180 0 min 1,5 C -0,4 C 8,5 km/h (2 Bft)
01.12.2016 16:10 3,7 C 4,3 C 4,5 C 3,3 C 2,4 C 0,0 C 86 % 88 % 0 % 1018,2 hPa 0,0 l/m 9,5 km/h (2 Bft) SW 225 0 min 1,6 C -0,3 C 13,0 km/h (3 Bft)
01.12.2016 16:15 3,7 C 4,3 C 4,6 C 3,5 C 2,5 C 0,0 C 86 % 87 % 0 % 1018,2 hPa 0,0 l/m 9,7 km/h (2 Bft) SW 225 0 min 1,6 C -0,3 C 12,2 km/h (2 Bft)
01.12.2016 16:20 3,9 C 4,3 C 4,6 C 3,7 C 2,3 C 0,0 C 86 % 87 % 0 % 1017,9 hPa 0,0 l/m 10,6 km/h (2 Bft) S 180 0 min 1,8 C -0,7 C 14,8 km/h (3 Bft)
01.12.2016 16:25 3,9 C 4,4 C 4,7 C 3,4 C 2,3 C 0,0 C 85 % 87 % 0 % 1017,9 hPa 0,0 l/m 11,3 km/h (2 Bft) W 270 0 min 1,6 C -0,9 C 15,3 km/h (3 Bft)
01.12.2016 16:30 4,1 C 4,4 C 4,7 C 3,5 C 2,3 C 0,0 C 85 % 87 % 0 % 1017,9 hPa 0,0 l/m 11,3 km/h (2 Bft) W-SW 247 0 min 1,8 C -0,9 C 8,2 km/h (2 Bft)
01.12.2016 16:35 4,1 C 4,4 C 4,7 C 3,8 C 2,5 C 0,0 C 85 % 87 % 0 % 1017,9 hPa 0,0 l/m 10,8 km/h (2 Bft) SW 225 0 min 1,8 C -0,5 C 16,1 km/h (3 Bft)
01.12.2016 16:40 4,1 C 4,4 C 4,7 C 3,9 C 2,6 C 0,0 C 85 % 87 % 0 % 1018,4 hPa 0,0 l/m 10,5 km/h (2 Bft) SW 225 0 min 1,8 C -0,3 C 9,3 km/h (2 Bft)
01.12.2016 16:45 4,3 C 4,4 C 4,7 C 3,7 C 2,6 C 0,0 C 85 % 87 % 0 % 1018,4 hPa 0,0 l/m 10,3 km/h (2 Bft) W-SW 247 0 min 2,0 C -0,3 C 6,0 km/h (2 Bft)
01.12.2016 16:50 4,3 C 4,4 C 4,8 C 4,0 C 2,9 C 0,0 C 85 % 87 % 0 % 1018,4 hPa 0,0 l/m 8,9 km/h (2 Bft) SW 225 0 min 2,0 C 0,4 C 15,6 km/h (3 Bft)
01.12.2016 16:55 4,5 C 4,4 C 4,8 C 4,0 C 2,9 C 0,0 C 85 % 87 % 0 % 1018,4 hPa 0,0 l/m 9,7 km/h (2 Bft) W-SW 247 0 min 2,2 C 0,2 C 12,6 km/h (3 Bft)
01.12.2016 17:00 4,7 C 4,4 C 4,8 C 4,3 C 2,6 C 0,0 C 85 % 87 % 0 % 1017,8 hPa 0,0 l/m 10,8 km/h (2 Bft) W-SW 247 0 min 2,4 C -0,4 C 15,9 km/h (3 Bft)
01.12.2016 17:05 4,7 C 4,4 C 4,8 C 4,3 C 2,8 C 0,0 C 85 % 88 % 0 % 1017,8 hPa 0,7 l/m 10,1 km/h (2 Bft) S-SW 202 0 min 2,4 C 0,0 C 12,1 km/h (2 Bft)
01.12.2016 17:10 4,7 C 4,4 C 4,8 C 4,3 C 2,7 C 0,0 C 85 % 87 % 0 % 1017,8 hPa 0,0 l/m 10,6 km/h (2 Bft) SW 225 0 min 2,4 C -0,2 C 16,4 km/h (3 Bft)
01.12.2016 17:15 4,7 C 4,4 C 4,8 C 4,3 C 2,8 C 0,0 C 85 % 87 % 0 % 1017,8 hPa 0,0 l/m 9,8 km/h (2 Bft) W-SW 247 0 min 2,4 C 0,1 C 11,7 km/h (2 Bft)
01.12.2016 17:20 4,7 C 4,4 C 4,8 C 4,1 C 2,8 C 0,0 C 85 % 87 % 0 % 1017,9 hPa 0,0 l/m 10,1 km/h (2 Bft) SW 225 0 min 2,4 C 0,0 C 15,1 km/h (3 Bft)
01.12.2016 17:25 4,8 C 4,4 C 4,8 C 4,4 C 2,7 C 0,0 C 85 % 87 % 0 % 1017,9 hPa 0,0 l/m 10,6 km/h (2 Bft) W-SW 247 0 min 2,5 C -0,2 C 10,3 km/h (2 Bft)
01.12.2016 17:30 4,8 C 4,4 C 4,8 C 4,1 C 2,7 C 0,0 C 84 % 87 % 0 % 1017,9 hPa 0,0 l/m 10,6 km/h (2 Bft) SW 225 0 min 2,3 C -0,2 C 16,1 km/h (3 Bft)
01.12.2016 17:35 4,8 C 4,4 C 4,8 C 4,3 C 2,4 C 0,0 C 84 % 87 % 0 % 1017,9 hPa 0,0 l/m 11,6 km/h (2 Bft) SW 225 0 min 2,3 C -0,8 C 18,3 km/h (3 Bft)
01.12.2016 17:40 4,8 C 4,4 C 4,8 C 4,3 C 2,2 C 0,0 C 84 % 88 % 0 % 1017,6 hPa 0,0 l/m 12,1 km/h (2 Bft) SW 225 0 min 2,3 C -1,2 C 10,6 km/h (2 Bft)
01.12.2016 17:45 4,8 C 4,4 C 4,9 C 4,3 C 2,3 C 0,0 C 84 % 88 % 0 % 1017,6 hPa 0,0 l/m 11,7 km/h (2 Bft) W-SW 247 0 min 2,3 C -1,0 C 15,0 km/h (3 Bft)
01.12.2016 17:50 4,9 C 4,4 C 4,8 C 4,4 C 2,4 C 0,0 C 84 % 88 % 0 % 1017,6 hPa 0,0 l/m 11,9 km/h (2 Bft) W-SW 247 0 min 2,4 C -0,9 C 11,1 km/h (2 Bft)
01.12.2016 17:55 5,0 C 4,4 C 4,8 C 4,1 C 2,4 C 0,0 C 84 % 88 % 0 % 1017,6 hPa 0,0 l/m 12,1 km/h (2 Bft) W-SW 247 0 min 2,5 C -0,9 C 13,0 km/h (3 Bft)
01.12.2016 18:00 4,9 C 4,4 C 4,8 C 4,4 C 2,5 C 0,0 C 84 % 88 % 0 % 1016,9 hPa 0,0 l/m 11,4 km/h (2 Bft) W-SW 247 0 min 2,4 C -0,6 C 12,7 km/h (3 Bft)
01.12.2016 18:05 5,0 C 4,4 C 4,8 C 4,2 C 2,5 C 0,0 C 84 % 88 % 0 % 1016,9 hPa 0,0 l/m 11,4 km/h (2 Bft) W-SW 247 0 min 2,5 C -0,6 C 14,8 km/h (3 Bft)
01.12.2016 18:10 5,0 C 4,5 C 4,9 C 4,2 C 2,5 C 0,0 C 84 % 88 % 0 % 1016,9 hPa 0,0 l/m 11,3 km/h (2 Bft) W-SW 247 0 min 2,5 C -0,6 C 16,7 km/h (3 Bft)
01.12.2016 18:15 5,1 C 4,5 C 4,8 C 4,5 C 2,2 C 0,0 C 84 % 88 % 0 % 1016,9 hPa 0,0 l/m 13,5 km/h (3 Bft) SW 225 0 min 2,6 C -1,4 C 12,1 km/h (2 Bft)
01.12.2016 18:20 5,1 C 4,5 C 4,8 C 4,1 C 2,2 C 0,0 C 84 % 88 % 0 % 1016,9 hPa 0,0 l/m 13,8 km/h (3 Bft) W-SW 247 0 min 2,6 C -1,5 C 12,2 km/h (2 Bft)
01.12.2016 18:25 5,1 C 4,5 C 4,8 C 4,4 C 2,1 C 0,0 C 84 % 88 % 0 % 1016,9 hPa 0,0 l/m 13,4 km/h (3 Bft) S-SW 202 0 min 2,6 C -1,5 C 16,4 km/h (3 Bft)
01.12.2016 18:30 5,1 C 4,5 C 4,9 C 4,5 C 2,4 C 0,0 C 84 % 89 % 0 % 1016,9 hPa 0,0 l/m 12,7 km/h (3 Bft) S-SW 202 0 min 2,6 C -1,0 C 9,7 km/h (2 Bft)
01.12.2016 18:35 5,1 C 4,5 C 4,9 C 4,5 C 2,6 C 0,0 C 84 % 89 % 0 % 1016,9 hPa 0,0 l/m 11,9 km/h (2 Bft) SW 225 0 min 2,6 C -0,6 C 14,0 km/h (3 Bft)
01.12.2016 18:40 5,1 C 4,5 C 4,8 C 4,3 C 2,6 C 0,0 C 84 % 88 % 0 % 1017,2 hPa 0,0 l/m 11,4 km/h (2 Bft) W-SW 247 0 min 2,6 C -0,5 C 15,9 km/h (3 Bft)
01.12.2016 18:45 4,9 C 4,5 C 4,8 C 4,4 C 2,3 C 0,0 C 84 % 88 % 0 % 1017,2 hPa 0,0 l/m 12,4 km/h (3 Bft) SW 225 0 min 2,4 C -1,1 C 15,3 km/h (3 Bft)
01.12.2016 18:50 4,9 C 4,5 C 4,8 C 4,0 C 2,3 C 0,0 C 84 % 88 % 0 % 1017,2 hPa 0,0 l/m 13,2 km/h (3 Bft) S 180 0 min 2,4 C -1,3 C 12,9 km/h (3 Bft)
01.12.2016 18:55 5,0 C 4,5 C 4,9 C 4,4 C 2,2 C 0,0 C 84 % 88 % 0 % 1017,2 hPa 0,0 l/m 14,0 km/h (3 Bft) W-SW 247 0 min 2,5 C -1,5 C 17,4 km/h (3 Bft)
01.12.2016 19:00 4,9 C 4,5 C 4,8 C 4,3 C 2,3 C 0,0 C 84 % 88 % 0 % 1016,4 hPa 0,0 l/m 13,2 km/h (3 Bft) W-SW 247 0 min 2,4 C -1,3 C 20,0 km/h (4 Bft)
01.12.2016 19:05 4,9 C 4,5 C 4,8 C 4,4 C 2,5 C 0,0 C 84 % 88 % 0 % 1016,4 hPa 0,0 l/m 12,1 km/h (2 Bft) SW 225 0 min 2,4 C -0,8 C 18,0 km/h (3 Bft)
01.12.2016 19:10 4,9 C 4,5 C 4,8 C 4,4 C 2,4 C 0,0 C 84 % 88 % 0 % 1016,4 hPa 0,0 l/m 12,6 km/h (3 Bft) W-SW 247 0 min 2,4 C -1,0 C 9,2 km/h (2 Bft)
01.12.2016 19:15 4,8 C 4,5 C 4,8 C 4,4 C 2,8 C 0,0 C 84 % 87 % 0 % 1016,4 hPa 0,0 l/m 10,6 km/h (2 Bft) W-SW 247 0 min 2,3 C -0,1 C 15,4 km/h (3 Bft)
01.12.2016 19:16 4,9 C 4,5 C 4,9 C 4,1 C 2,7 C 0,0 C 85 % 87 % 0 % 1016,5 hPa 0,0 l/m 10,8 km/h (2 Bft) SW 225 0 min 2,6 C -0,3 C 16,3 km/h (3 Bft)
01.12.2016 19:21 5,0 C 4,5 C 4,8 C 4,5 C 2,4 C 0,0 C 84 % 87 % 0 % 1016,5 hPa 0,0 l/m 13,2 km/h (3 Bft) SW 225 0 min 2,5 C -1,1 C 15,4 km/h (3 Bft)
01.12.2016 19:26 5,1 C 4,5 C 4,9 C 4,2 C 2,4 C 0,0 C 84 % 87 % 0 % 1016,5 hPa 0,0 l/m 13,4 km/h (3 Bft) S-SW 202 0 min 2,6 C -1,2 C 10,8 km/h (2 Bft)
01.12.2016 19:31 5,2 C 4,5 C 4,9 C 4,7 C 3,1 C 0,0 C 84 % 87 % 0 % 1016,5 hPa 0,0 l/m 11,7 km/h (2 Bft) W-SW 247 0 min 2,7 C 0,0 C 11,9 km/h (2 Bft)
01.12.2016 19:35 5,2 C 4,5 C 4,9 C 4,5 C 3,1 C 0,0 C 84 % 87 % 0 % 1016,5 hPa 0,0 l/m 11,7 km/h (2 Bft) W-SW 247 0 min 2,7 C 0,0 C 11,9 km/h (2 Bft)
01.12.2016 19:40 5,3 C 4,7 C 5,0 C 4,6 C 3,1 C 0,0 C 84 % 87 % 0 % 1016,7 hPa 0,0 l/m 11,6 km/h (2 Bft) W-SW 247 0 min 2,8 C 0,0 C 13,7 km/h (3 Bft)
01.12.2016 19:45 5,5 C 4,7 C 5,1 C 5,0 C 3,3 C 0,0 C 84 % 88 % 0 % 1016,7 hPa 0,0 l/m 12,1 km/h (2 Bft) W-SW 247 0 min 3,0 C 0,2 C 13,4 km/h (3 Bft)
01.12.2016 19:50 5,5 C 4,7 C 5,0 C 5,1 C 3,4 C 0,0 C 84 % 88 % 0 % 1016,7 hPa 0,0 l/m 11,4 km/h (2 Bft) S 180 0 min 3,0 C 0,4 C 13,8 km/h (3 Bft)
01.12.2016 19:55 5,4 C 4,7 C 5,1 C 5,0 C 3,6 C 0,0 C 84 % 88 % 0 % 1016,7 hPa 0,0 l/m 10,5 km/h (2 Bft) W-SW 247 0 min 2,9 C 0,9 C 11,6 km/h (2 Bft)
01.12.2016 20:00 5,5 C 4,7 C 5,1 C 5,2 C 3,8 C 0,0 C 84 % 88 % 0 % 1016,3 hPa 0,0 l/m 10,5 km/h (2 Bft) W-SW 247 0 min 3,0 C 1,1 C 13,8 km/h (3 Bft)
01.12.2016 20:05 5,3 C 4,7 C 5,1 C 5,0 C 3,4 C 0,0 C 84 % 88 % 0 % 1016,3 hPa 0,0 l/m 10,3 km/h (2 Bft) SW 225 0 min 2,8 C 0,7 C 15,1 km/h (3 Bft)
01.12.2016 20:06 5,2 C 4,7 C 5,1 C 4,4 C 2,8 C 0,0 C 84 % 89 % 0 % 1016,3 hPa 0,0 l/m 11,3 km/h (2 Bft) W-SW 247 0 min 2,7 C -0,3 C 14,8 km/h (3 Bft)
01.12.2016 20:11 4,9 C 4,7 C 4,9 C 4,4 C 2,6 C 0,0 C 84 % 89 % 0 % 1016,3 hPa 0,0 l/m 11,7 km/h (2 Bft) SW 225 0 min 2,4 C -0,6 C 14,3 km/h (3 Bft)
01.12.2016 20:16 4,9 C 4,7 C 4,9 C 4,1 C 2,6 C 0,0 C 84 % 88 % 0 % 1015,9 hPa 0,0 l/m 11,6 km/h (2 Bft) SW 225 0 min 2,4 C -0,6 C 13,2 km/h (3 Bft)
01.12.2016 20:21 4,9 C 4,7 C 4,9 C 4,1 C 2,6 C 0,0 C 84 % 88 % 0 % 1015,9 hPa 0,0 l/m 11,6 km/h (2 Bft) SW 225 0 min 2,4 C -0,6 C 13,2 km/h (3 Bft)
01.12.2016 20:25 4,7 C 4,7 C 4,9 C 4,3 C 2,7 C 0,0 C 85 % 88 % 0 % 1015,9 hPa 0,0 l/m 11,1 km/h (2 Bft) W-SW 247 0 min 2,4 C -0,3 C 10,1 km/h (2 Bft)
01.12.2016 20:30 4,7 C 4,7 C 4,8 C 4,0 C 2,7 C 0,0 C 85 % 88 % 0 % 1015,9 hPa 0,0 l/m 10,8 km/h (2 Bft) SW 225 0 min 2,4 C -0,3 C 11,1 km/h (2 Bft)
01.12.2016 20:35 4,6 C 4,7 C 4,9 C 4,0 C 2,7 C 0,0 C 85 % 88 % 0 % 1015,9 hPa 0,0 l/m 11,1 km/h (2 Bft) W-SW 247 0 min 2,3 C -0,3 C 12,7 km/h (3 Bft)
01.12.2016 20:40 4,5 C 4,7 C 4,8 C 4,2 C 2,6 C 0,0 C 85 % 88 % 0 % 1015,8 hPa 0,7 l/m 11,7 km/h (2 Bft) SW 225 0 min 2,2 C -0,6 C 17,7 km/h (3 Bft)
01.12.2016 20:45 4,5 C 4,7 C 4,8 C 4,1 C 2,5 C 0,0 C 85 % 88 % 0 % 1015,8 hPa 0,0 l/m 12,1 km/h (2 Bft) W-SW 247 0 min 2,2 C -0,8 C 9,5 km/h (2 Bft)
01.12.2016 20:50 4,5 C 4,7 C 4,8 C 4,1 C 2,6 C 0,0 C 85 % 88 % 0 % 1015,8 hPa 0,0 l/m 11,4 km/h (2 Bft) W-SW 247 0 min 2,2 C -0,5 C 14,5 km/h (3 Bft)
01.12.2016 20:55 4,4 C 4,7 C 4,8 C 3,8 C 2,6 C 0,0 C 85 % 87 % 0 % 1015,8 hPa 0,0 l/m 11,6 km/h (2 Bft) W 270 0 min 2,1 C -0,6 C 14,5 km/h (3 Bft)
01.12.2016 21:00 4,4 C 4,7 C 4,8 C 4,1 C 2,7 C 0,0 C 85 % 87 % 0 % 1015,8 hPa 0,0 l/m 11,3 km/h (2 Bft) W-SW 247 0 min 2,1 C -0,4 C 7,6 km/h (2 Bft)
01.12.2016 21:05 4,4 C 4,8 C 4,8 C 4,1 C 2,9 C 0,0 C 85 % 87 % 0 % 1015,8 hPa 0,0 l/m 10,0 km/h (2 Bft) W-SW 247 0 min 2,1 C 0,1 C 12,9 km/h (3 Bft)
01.12.2016 21:10 4,5 C 4,8 C 4,9 C 4,2 C 2,7 C 0,0 C 85 % 87 % 0 % 1015,8 hPa 0,0 l/m 10,8 km/h (2 Bft) W-SW 247 0 min 2,2 C -0,3 C 16,1 km/h (3 Bft)
01.12.2016 21:15 4,5 C 4,8 C 4,9 C 3,9 C 2,7 C 0,0 C 85 % 87 % 0 % 1015,8 hPa 0,0 l/m 11,1 km/h (2 Bft) N-NW 337 0 min 2,2 C -0,3 C 6,8 km/h (2 Bft)
01.12.2016 21:20 4,5 C 4,8 C 4,9 C 4,2 C 2,6 C 0,0 C 85 % 86 % 0 % 1015,4 hPa 0,0 l/m 11,7 km/h (2 Bft) W-SW 247 0 min 2,2 C -0,6 C 23,3 km/h (4 Bft)
01.12.2016 21:25 4,5 C 4,8 C 4,9 C 3,9 C 2,6 C 0,0 C 85 % 86 % 0 % 1015,4 hPa 0,0 l/m 12,2 km/h (2 Bft) W-SW 247 0 min 2,2 C -0,7 C 23,2 km/h (4 Bft)
01.12.2016 21:30 4,5 C 4,8 C 4,9 C 4,2 C 2,5 C 0,0 C 85 % 86 % 0 % 1015,4 hPa 0,0 l/m 12,6 km/h (3 Bft) W-SW 247 0 min 2,2 C -0,9 C 10,5 km/h (2 Bft)
01.12.2016 21:40 4,6 C 4,8 C 5,1 C 4,3 C 2,9 C 0,0 C 85 % 86 % 0 % 1015,1 hPa 0,0 l/m 11,1 km/h (2 Bft) O-NO 67 0 min 2,3 C -0,1 C 32,3 km/h (5 Bft)
01.12.2016 21:45 4,7 C 4,8 C 5,1 C 4,4 C 3,1 C 0,0 C 85 % 86 % 0 % 1015,1 hPa 0,0 l/m 10,3 km/h (2 Bft) W-SW 247 0 min 2,4 C 0,3 C 16,9 km/h (3 Bft)
01.12.2016 21:50 4,7 C 4,8 C 5,1 C 4,4 C 3,0 C 0,0 C 85 % 86 % 0 % 1015,1 hPa 0,0 l/m 10,6 km/h (2 Bft) SW 225 0 min 2,4 C 0,1 C 14,6 km/h (3 Bft)
01.12.2016 21:55 4,7 C 4,8 C 5,0 C 4,4 C 2,7 C 0,0 C 85 % 86 % 0 % 1015,1 hPa 0,0 l/m 11,9 km/h (2 Bft) W-SW 247 0 min 2,4 C -0,5 C 16,6 km/h (3 Bft)
01.12.2016 22:00 4,7 C 4,8 C 5,0 C 4,0 C 2,7 C 0,0 C 85 % 86 % 0 % 1015,6 hPa 0,0 l/m 12,2 km/h (2 Bft) SO 135 0 min 2,4 C -0,6 C 20,9 km/h (4 Bft)
01.12.2016 22:05 4,7 C 4,8 C 5,1 C 4,3 C 2,6 C 0,0 C 85 % 86 % 0 % 1015,6 hPa 0,0 l/m 13,0 km/h (3 Bft) SW 225 0 min 2,4 C -0,8 C 17,1 km/h (3 Bft)
01.12.2016 22:14 4,5 C 4,8 C 5,1 C 4,2 C 2,7 C 0,0 C 85 % 86 % 0 % 1015,6 hPa 0,0 l/m 11,3 km/h (2 Bft) N 0 0 min 2,2 C -0,4 C 21,2 km/h (4 Bft)
01.12.2016 22:26 4,7 C 4,8 C 5,0 C 4,0 C 2,7 C 0,0 C 85 % 85 % 0 % 1014,8 hPa 0,0 l/m 12,1 km/h (2 Bft) W 270 0 min 2,4 C -0,6 C 16,4 km/h (3 Bft)
01.12.2016 22:30 4,8 C 4,8 C 5,0 C 4,4 C 2,9 C 0,0 C 85 % 85 % 0 % 1014,8 hPa 0,0 l/m 10,9 km/h (2 Bft) W-SW 247 0 min 2,5 C -0,1 C 13,4 km/h (3 Bft)
01.12.2016 22:35 5,0 C 4,8 C 5,1 C 4,6 C 3,0 C 0,0 C 85 % 85 % 0 % 1014,8 hPa 0,0 l/m 11,3 km/h (2 Bft) S-SW 202 0 min 2,7 C -0,0 C 8,7 km/h (2 Bft)
01.12.2016 22:40 5,0 C 4,7 C 5,2 C 4,6 C 3,1 C 0,0 C 85 % 85 % 0 % 1014,8 hPa 0,0 l/m 11,4 km/h (2 Bft) SW 225 0 min 2,7 C 0,1 C 11,1 km/h (2 Bft)
01.12.2016 22:45 5,3 C 4,7 C 5,2 C 4,9 C 3,3 C 0,0 C 84 % 86 % 0 % 1014,8 hPa 0,0 l/m 12,4 km/h (3 Bft) W-SW 247 0 min 2,8 C 0,1 C 18,7 km/h (3 Bft)
01.12.2016 22:50 5,5 C 4,7 C 5,3 C 5,0 C 2,9 C 0,0 C 84 % 86 % 0 % 1014,8 hPa 0,0 l/m 14,6 km/h (3 Bft) SW 225 0 min 3,0 C -0,8 C 13,4 km/h (3 Bft)
01.12.2016 22:55 5,5 C 4,9 C 5,4 C 5,0 C 2,8 C 0,0 C 84 % 87 % 0 % 1014,8 hPa 0,0 l/m 15,4 km/h (3 Bft) SW 225 0 min 3,0 C -1,0 C 23,7 km/h (4 Bft)
01.12.2016 23:00 5,5 C 4,9 C 5,4 C 4,6 C 2,8 C 0,0 C 84 % 87 % 0 % 1014,4 hPa 0,0 l/m 14,6 km/h (3 Bft) W-SW 247 0 min 3,0 C -0,9 C 18,0 km/h (3 Bft)
01.12.2016 23:05 5,4 C 4,9 C 5,5 C 4,8 C 2,7 C 0,0 C 84 % 88 % 0 % 1014,4 hPa 0,0 l/m 14,6 km/h (3 Bft) SW 225 0 min 2,9 C -1,0 C 22,4 km/h (4 Bft)
01.12.2016 23:10 5,4 C 4,9 C 5,5 C 4,8 C 2,8 C 0,0 C 84 % 88 % 0 % 1014,4 hPa 0,0 l/m 14,0 km/h (3 Bft) W-SW 247 0 min 2,9 C -0,8 C 25,3 km/h (4 Bft)
01.12.2016 23:15 5,5 C 4,9 C 5,4 C 4,9 C 2,9 C 0,0 C 84 % 88 % 0 % 1014,4 hPa 0,0 l/m 13,7 km/h (3 Bft) W-SW 247 0 min 3,0 C -0,6 C 9,8 km/h (2 Bft)
01.12.2016 23:20 5,5 C 4,9 C 5,5 C 5,0 C 3,3 C 0,0 C 84 % 88 % 0 % 1014,3 hPa 0,0 l/m 11,9 km/h (2 Bft) W-SW 247 0 min 3,0 C 0,2 C 13,4 km/h (3 Bft)
01.12.2016 23:25 5,6 C 4,9 C 5,5 C 5,2 C 3,7 C 0,0 C 84 % 88 % 0 % 1014,3 hPa 0,0 l/m 11,1 km/h (2 Bft) SW 225 0 min 3,1 C 0,9 C 17,4 km/h (3 Bft)
01.12.2016 23:30 5,6 C 4,9 C 5,6 C 5,2 C 3,6 C 0,0 C 84 % 88 % 0 % 1014,3 hPa 0,0 l/m 11,9 km/h (2 Bft) SW 225 0 min 3,1 C 0,6 C 14,3 km/h (3 Bft)
01.12.2016 23:35 5,6 C 4,9 C 5,6 C 5,2 C 3,2 C 0,0 C 84 % 88 % 0 % 1014,3 hPa 0,0 l/m 13,5 km/h (3 Bft) W-SW 247 0 min 3,1 C -0,2 C 16,4 km/h (3 Bft)
01.12.2016 23:40 5,7 C 4,9 C 5,6 C 5,2 C 3,6 C 0,0 C 84 % 88 % 0 % 1014,6 hPa 0,0 l/m 11,6 km/h (2 Bft) W-SW 247 0 min 3,2 C 0,6 C 9,7 km/h (2 Bft)
01.12.2016 23:45 5,6 C 4,9 C 5,6 C 5,2 C 3,7 C 0,0 C 84 % 88 % 0 % 1014,6 hPa 0,0 l/m 10,6 km/h (2 Bft) SW 225 0 min 3,1 C 1,0 C 11,3 km/h (2 Bft)
01.12.2016 23:50 5,5 C 4,9 C 5,6 C 5,1 C 3,4 C 0,0 C 84 % 88 % 0 % 1014,6 hPa 0,0 l/m 11,3 km/h (2 Bft) W-SW 247 0 min 3,0 C 0,5 C 14,8 km/h (3 Bft)
01.12.2016 23:55 5,6 C 4,9 C 5,6 C 5,1 C 3,3 C 0,0 C 84 % 88 % 0 % 1014,6 hPa 0,0 l/m 12,9 km/h (3 Bft) SW 225 0 min 3,1 C 0,0 C 15,4 km/h (3 Bft)
_ Min-Zeit 00:00 00:00 00:00 00:00 00:00 00:00 11:40 05:15 00:00 23:20 - 01:35 - - - 00:00 00:00 00:00
Minimum _ 0,8 C 2,7 C 1,4 C 0,4 C -0,3 C 0,0 C 84 % 78 % 0 % 1014,3 hPa - 4,5 km/h (1 Bft) - - - -1,3 C -2,5 C 2,9 km/h (1 Bft)
_ Max-Zeit 23:40 22:55 23:30 20:00 12:20 10:00 04:24 13:55 10:00 00:00 00:00 22:55 - - 00:00 23:40 12:25 21:40
Maximum _ 5,7 C 4,9 C 5,6 C 5,2 C 4,3 C 0,1 C 88 % 91 % 3 % 1025,9 hPa 0,7 l/m 15,4 km/h
SW (3 Bft)
- - 0 min 3,2 C 1,9 C 32,3 km/h
O-NO (5 Bft)
Durchschnitt _ 3,4 C 3,9 C 3,9 C 3,1 C 2,0 C 0,0 C 85 % 84 % 0 % 1020,2 hPa #8,2 l/m 9,6 km/h (2 Bft) W-SW - #0 min. 1,2 C -0,7 C 12,3 km/h (3 Bft)
2016 www.wetterstation-wechselburg.de